FW5156 Weather Reports


time (UTC)temp
C
wind
direction
speed
KPH
gust
KPH
rain 1hr
cm
rain 24hr
cm
rain mn
cm
humidity
%
barometer
mb
20260905172516 31 0.0 4.8 0.00 0.10 0.10 60 1014.8
20260905171556 31 0.0 6.4 0.00 0.10 0.10 64 1014.9
20260905170516 30 0.0 0.0 0.00 0.10 0.10 63 1015.0
20260905165516 30 225 1.6 6.4 0.00 0.10 0.10 65 1015.1
20260905164516 29 225 1.6 11.3 0.00 0.10 0.10 65 1015.1
20260905163516 29 0.0 6.4 0.00 0.10 0.10 68 1015.3
20260905162516 28 0.0 6.4 0.00 0.10 0.10 65 1015.4
20260905161516 28 203 1.6 8.0 0.00 0.10 0.10 68 1015.3
20260905160516 27 270 1.6 8.0 0.00 0.10 0.10 67 1015.1
20260905155556 27 248 1.6 11.3 0.00 0.10 0.10 70 1015.2
20260905154516 27 0.0 11.3 0.00 0.10 0.10 73 1015.1
20260905153516 27 0.0 3.2 0.00 0.10 0.10 71 1015.5
20260905152516 26 0.0 3.2 0.00 0.10 0.10 71 1015.6
20260905151516 26 90 1.6 9.7 0.00 0.10 0.10 72 1015.6
20260905150516 25 90 1.6 9.7 0.00 0.10 0.10 75 1015.4
20260905145516 25 0.0 6.4 0.00 0.10 0.10 79 1015.4
20260905144516 25 0.0 6.4 0.00 0.10 0.10 78 1015.5
20260905143516 25 0.0 0.0 0.00 0.10 0.10 79 1015.7
20260905142516 24 0.0 6.4 0.00 0.10 0.10 81 1015.6
20260905141516 23 90 3.2 11.3 0.00 0.10 0.10 82 1015.6
20260905140516 23 68 1.6 4.8 0.00 0.10 0.10 85 1015.7
20260905134516 22 113 3.2 8.0 0.03 0.10 0.10 89 1015.5
20260905133516 22 0.0 3.2 0.03 0.10 0.10 90 1015.6
20260905132516 22 0.0 6.4 0.10 0.10 0.10 90 1015.5
20260905131516 22 113 1.6 6.4 0.10 0.10 0.10 92 1015.7
20260905130516 21 0.0 3.2 0.10 0.10 0.10 91 1015.8
20260905125516 21 0.0 6.4 0.10 0.10 0.10 91 1015.7
20260905124516 21 0.0 9.7 0.08 0.08 0.08 89 1015.7
20260905123516 22 0.0 6.4 0.08 0.08 0.08 86 1015.7
20260905122516 22 113 1.6 8.0 0.00 0.00 0.00 83 1016.2
20260905121516 23 113 1.6 12.9 0.00 0.00 0.00 84 1015.8
20260905120536 23 113 4.8 14.5 0.00 0.00 0.00 86 1015.7
20260905115516 23 113 3.2 9.7 0.00 0.00 0.00 90 1016.0
20260905114517 23 203 3.2 9.7 0.00 0.00 0.00 91 1015.5
20260905113516 23 0.0 0.0 0.00 0.00 0.00 91 1014.9
20260905112536 23 0.0 0.0 0.00 0.00 0.00 90 1014.5
20260905111516 23 0.0 0.0 0.00 0.00 0.00 90 1014.4
20260905110516 23 0.0 0.0 0.00 0.00 0.00 89 1014.3
20260905105516 24 0.0 0.0 0.00 0.00 0.00 89 1014.2
20260905104516 24 0.0 0.0 0.00 0.00 0.00 89 1014.3
20260905103536 24 0.0 0.0 0.00 0.00 0.00 88 1014.2
20260905102516 24 0.0 0.0 0.00 0.00 0.00 88 1014.2
20260905101516 24 0.0 0.0 0.00 0.00 0.00 89 1014.2
20260905100516 24 0.0 0.0 0.00 0.00 0.00 89 1014.3
20260905095516 25 0.0 0.0 0.00 0.00 0.00 88 1014.3
20260905094516 25 0.0 0.0 0.00 0.00 0.00 87 1014.4
20260905093516 25 0.0 0.0 0.00 0.00 0.00 87 1014.4
20260905092516 25 0.0 0.0 0.00 0.00 0.00 86 1014.5
20260905091536 25 0.0 0.0 0.00 0.00 0.00 85 1014.4
20260905090516 25 0.0 0.0 0.00 0.00 0.00 85 1014.3
20260905085516 25 0.0 1.6 0.00 0.00 0.00 83 1014.2
20260905084516 25 0.0 0.0 0.00 0.00 0.00 83 1014.0
20260905083556 25 0.0 0.0 0.00 0.00 0.00 83 1013.9
20260905082516 25 0.0 1.6 0.00 0.00 0.00 84 1013.8
20260905081516 26 0.0 0.0 0.00 0.00 0.00 84 1013.8
20260905080516 26 0.0 0.0 0.00 0.00 0.00 84 1013.8
20260905075516 26 0.0 0.0 0.00 0.00 0.00 84 1013.7
20260905074557 26 0.0 0.0 0.00 0.00 0.00 83 1013.6
20260905073516 26 0.0 0.0 0.00 0.00 0.00 83 1013.6
20260905072516 26 0.0 1.6 0.00 0.00 0.00 82 1013.8
20260905071516 26 0.0 0.0 0.00 0.00 0.00 82 1013.9
20260905070516 26 0.0 0.0 0.00 0.00 0.00 81 1014.0
20260905065516 26 0.0 0.0 0.00 0.00 0.00 81 1014.1
20260905064516 26 0.0 0.0 0.00 0.00 0.00 81 1014.2
20260905063516 26 0.0 0.0 0.00 0.00 0.00 81 1014.4
20260905062536 26 0.0 0.0 0.00 0.00 0.00 80 1014.4
20260905061536 26 0.0 0.0 0.00 0.00 0.00 80 1014.6
20260905060536 27 0.0 0.0 0.00 0.00 0.00 80 1014.8
20260905055516 27 0.0 0.0 0.00 0.00 0.00 80 1014.9
20260905054536 26 0.0 0.0 0.00 0.00 0.00 81 1014.7
20260905053536 26 0.0 0.0 0.00 0.00 0.00 82 1014.8
20260905052537 26 0.0 0.0 0.00 0.00 0.00 82 1014.8
20260905051516 26 0.0 0.0 0.00 0.00 0.00 83 1014.9
20260905050516 26 0.0 0.0 0.00 0.00 0.00 83 1014.8
20260905045516 26 0.0 0.0 0.00 0.00 0.00 83 1014.9
20260905044516 26 0.0 0.0 0.00 0.00 0.00 82 1015.0
20260905043516 26 0.0 0.0 0.00 0.00 0.00 82 1015.0
20260905042516 26 0.0 0.0 0.00 0.00 0.00 82 1015.1
20260905041516 26 0.0 0.0 0.00 0.00 0.00 82 1015.1
20260905040516 26 0.0 0.0 0.00 0.00 0.00 82 1015.1
20260905035516 26 0.0 0.0 0.00 0.00 0.00 81 1015.0
20260905034516 27 0.0 0.0 0.00 0.00 0.00 81 1015.0
20260905033516 27 0.0 0.0 0.00 0.00 0.00 81 1015.1
20260905032516 27 0.0 0.0 0.00 0.00 0.00 81 1015.1
20260905031516 27 0.0 0.0 0.00 0.00 0.00 82 1015.2
20260905030536 27 0.0 0.0 0.00 0.00 0.00 81 1015.0
20260905024516 27 0.0 0.0 0.00 0.00 0.00 80 1014.7
20260905023516 27 0.0 0.0 0.00 0.00 0.00 80 1014.8
20260905022516 27 0.0 0.0 0.00 0.00 0.00 81 1014.7
20260905021516 27 0.0 0.0 0.00 0.00 0.00 79 1014.8
20260905020516 27 0.0 0.0 0.00 0.00 0.00 78 1014.8
20260905015516 27 0.0 0.0 0.00 0.00 0.00 79 1014.8
20260905014516 27 0.0 0.0 0.00 0.00 0.00 80 1014.6
20260905013516 27 0.0 0.0 0.00 0.00 0.00 80 1014.6
20260905012536 27 0.0 0.0 0.00 0.00 0.00 81 1014.4
20260905011516 27 0.0 0.0 0.00 0.00 0.00 80 1014.3
20260905010516 27 0.0 0.0 0.00 0.00 0.00 81 1014.3
20260905005516 28 0.0 0.0 0.00 0.00 0.00 81 1014.2
20260905004516 28 0.0 0.0 0.00 0.00 0.00 82 1014.2
20260905003516 28 0.0 0.0 0.00 0.00 0.00 82 1014.0
20260905002516 28 0.0 0.0 0.00 0.00 0.00 81 1014.2
20260905001516 29 0.0 0.0 0.00 0.00 0.00 80 1014.3
20260905000516 29 0.0 0.0 0.00 0.00 0.00 79 1014.2
20260904235516 30 0.0 0.0 0.00 0.00 0.00 78 1014.2
20260904234516 31 0.0 0.0 0.00 0.00 0.00 76 1014.3
20260904233516 31 0.0 0.0 0.00 0.00 0.00 74 1014.4
20260904232516 32 0.0 0.0 0.00 0.00 0.00 71 1014.3
20260904231516 33 0.0 0.0 0.00 0.00 0.00 69 1014.2
20260904230516 33 0.0 0.0 0.00 0.00 0.00 66 1014.2
20260904225516 34 0.0 0.0 0.00 0.00 0.00 64 1014.3
20260904224516 35 0.0 0.0 0.00 0.00 0.00 62 1014.4
20260904223516 35 0.0 3.2 0.00 0.00 0.00 60 1014.3
20260904222556 35 0.0 3.2 0.00 0.00 0.00 58 1014.3
20260904221516 35 0.0 1.6 0.00 0.00 0.00 59 1014.3
20260904220516 35 0.0 3.2 0.00 0.00 0.00 58 1014.3
20260904215516 35 0.0 3.2 0.00 0.00 0.00 58 1014.3
20260904214516 35 0.0 4.8 0.00 0.00 0.00 57 1014.3
20260904213516 35 0.0 4.8 0.00 0.00 0.00 57 1014.4
20260904212516 35 248 1.6 4.8 0.00 0.00 0.00 56 1014.4
20260904211516 35 0.0 6.4 0.00 0.00 0.00 56 1014.6
20260904210516 35 293 1.6 6.4 0.00 0.00 0.00 55 1014.6
20260904205516 35 0.0 4.8 0.00 0.00 0.00 54 1014.9
20260904204537 35 0.0 3.2 0.00 0.00 0.00 56 1015.0
20260904203516 36 0.0 3.2 0.00 0.00 0.00 53 1015.1
20260904202516 35 0.0 4.8 0.00 0.00 0.00 54 1015.2
20260904201516 35 0.0 4.8 0.00 0.00 0.00 57 1015.3
20260904200516 35 0.0 8.0 0.00 0.00 0.00 54 1015.4
20260904195517 35 225 1.6 6.4 0.00 0.00 0.00 55 1015.4
20260904194516 35 203 1.6 8.0 0.00 0.00 0.00 56 1015.7
20260904193516 35 315 3.2 9.7 0.00 0.00 0.00 55 1015.8
20260904192516 35 270 3.2 12.9 0.00 0.00 0.00 54 1016.0
20260904191536 35 0.0 4.8 0.00 0.00 0.00 56 1016.1
20260904190516 35 0.0 6.4 0.00 0.00 0.00 53 1016.1
20260904185516 35 0.0 6.4 0.00 0.00 0.00 56 1016.3
20260904184536 35 315 1.6 6.4 0.00 0.00 0.00 55 1016.4
20260904183516 35 203 1.6 11.3 0.00 0.00 0.00 57 1016.6
20260904182516 35 203 1.6 8.0 0.00 0.00 0.00 56 1016.7
20260904181516 34 225 1.6 8.0 0.00 0.00 0.00 58 1016.7
20260904180516 35 315 3.2 11.3 0.00 0.00 0.00 59 1016.8
20260904175516 34 203 1.6 8.0 0.00 0.00 0.00 58 1016.9
20260904174516 35 315 1.6 11.3 0.00 0.00 0.00 55 1016.9
20260904173516 35 293 1.6 6.4 0.00 0.00 0.00 57 1017.1